Weather History for Rochester, NH

Change the Weather History Date:

Saturday, February 23, 2013

  Actual Average (KSFM) Record (KSFM)
Temperature  
Mean Temperature 32 °F -  
Max Temperature 37 °F 34 °F 48 °F (2012)
Min Temperature 28 °F 15 °F -7 °F (2011)
Degree Days  
Heating Degree Days 32    
Moisture  
Dew Point 29 °F    
Average Humidity 85    
Maximum Humidity 96    
Minimum Humidity 65    
Precipitation  
Precipitation 0.10 in - - ()
Sea Level Pressure  
Sea Level Pressure 30.12 in    
Wind  
Wind Speed 1 mph (ESE)    
Max Wind Speed 8 mph    
Max Gust Speed -    
Visibility 5 miles    
Events Snow    
Averages and records for this station are not official NWS values.
T = Trace of Precipitation, MM = Missing Value Source: NWS Daily Summary

Daily Weather History Graph

Daily Weather History Graph

Search for Another Location

Airport:

Trip Planner

Search our weather history database for the weather conditions in past years. The results will help you decide how hot, cold, wet, or windy it might be!

Date:

Astronomy

Feb. 23, 2013 Rise Set
Actual Time 6:29 AM EST 5:25 PM EST
Civil Twilight 6:00 AM EST 5:54 PM EST
Nautical Twilight 5:27 AM EST 6:27 PM EST
Astronomical Twilight 4:54 AM EST 7:00 PM EST
Moon 3:30 PM EST (2/23) 4:52 AM EST (2/23)
Length of Visible Light 11h 53m
Length of Day
10h 56m
Waxing Gibbous, 95% of the Moon is Illuminated
Feb 23
Waxing Gibbous
Feb 25
Full
Mar 4
Last Quarter
Mar 11
New
Mar 19
First Quarter

Hourly Weather History & Observations

Time (EST) Temp. Windchill Dew Point Humidity Pressure Visibility Wind Dir Wind Speed Gust Speed Precip Events Conditions
12:51 AM 28.9 °F - 21.9 °F 75% 30.32 in 10.0 mi Calm Calm - N/A   Overcast
1:51 AM 28.9 °F - 21.0 °F 72% 30.30 in 10.0 mi Calm Calm - N/A   Overcast
2:51 AM 28.9 °F - 21.9 °F 75% 30.29 in 10.0 mi Calm Calm - N/A   Overcast
3:51 AM 28.9 °F - 23.0 °F 78% 30.28 in 10.0 mi Calm Calm - N/A   Overcast
4:07 AM 28.4 °F - 21.2 °F 74% 30.27 in 10.0 mi Calm Calm - N/A   Overcast
4:17 AM 30.2 °F - 23.0 °F 75% 30.27 in 10.0 mi Calm Calm - N/A   Overcast
4:51 AM 28.9 °F - 21.9 °F 75% 30.27 in 10.0 mi Calm Calm - N/A   Overcast
5:22 AM 28.4 °F - 23.0 °F 80% 30.26 in 10.0 mi Calm Calm - N/A   Overcast
5:51 AM 28.9 °F - 21.9 °F 75% 30.25 in 10.0 mi Calm Calm - N/A   Overcast
6:51 AM 28.9 °F - 21.9 °F 75% 30.25 in 10.0 mi Calm Calm - N/A   Overcast
7:51 AM 30.9 °F - 23.0 °F 72% 30.24 in 10.0 mi Calm Calm - N/A   Overcast
8:51 AM 32.0 °F - 24.1 °F 73% 30.24 in 10.0 mi Calm Calm - N/A   Overcast
9:02 AM 32.0 °F - 24.8 °F 75% 30.23 in 10.0 mi Calm Calm - N/A   Overcast
9:16 AM 33.8 °F - 24.8 °F 70% 30.23 in 10.0 mi Calm Calm - N/A   Overcast
9:51 AM 34.0 °F - 26.1 °F 73% 30.22 in 10.0 mi Calm Calm - 0.00 in   Overcast
10:51 AM 34.0 °F 31.0 °F 28.0 °F 79% 30.21 in 10.0 mi East 3.5 mph - 0.00 in   Overcast
11:51 AM 35.1 °F 30.1 °F 28.0 °F 76% 30.17 in 10.0 mi ESE 5.8 mph - N/A   Overcast
12:42 PM 37.4 °F 31.4 °F 26.6 °F 65% 30.15 in 10.0 mi SSE 8.1 mph - N/A   Overcast
12:51 PM 36.0 °F 31.1 °F 27.0 °F 70% 30.15 in 7.0 mi SE 5.8 mph - 0.00 in Snow Light Snow
1:51 PM 36.0 °F 31.1 °F 28.9 °F 76% 30.14 in 10.0 mi ESE 5.8 mph - 0.00 in   Overcast
2:51 PM 35.1 °F 31.0 °F 30.9 °F 85% 30.12 in 5.0 mi SE 4.6 mph - 0.00 in Snow Light Snow
3:10 PM 35.6 °F 31.7 °F 30.2 °F 81% 30.11 in 2.5 mi SE 4.6 mph - 0.00 in Snow Light Snow
3:25 PM 33.8 °F - 32.0 °F 93% 30.11 in 2.5 mi Calm Calm - 0.00 in Snow Light Snow
3:36 PM 33.8 °F 29.6 °F 32.0 °F 93% 30.11 in 1.0 mi SSE 4.6 mph - 0.01 in Snow Light Snow
3:51 PM 34.0 °F - 32.0 °F 92% 30.11 in 1.0 mi Calm Calm - 0.02 in Snow Light Snow
4:21 PM 33.8 °F 30.8 °F 30.2 °F 87% 30.09 in 2.0 mi ESE 3.5 mph - 0.00 in Snow Light Snow
4:42 PM 33.8 °F 30.8 °F 32.0 °F 93% 30.09 in 1.2 mi ESE 3.5 mph - 0.01 in Snow Light Snow
4:51 PM 33.1 °F 30.0 °F 32.0 °F 96% 30.09 in 1.8 mi ESE 3.5 mph - 0.01 in Snow Light Snow
4:59 PM 33.8 °F 30.8 °F 32.0 °F 93% 30.09 in 2.0 mi SE 3.5 mph - 0.00 in Snow Light Snow
5:08 PM 33.8 °F 29.6 °F 32.0 °F 93% 30.08 in 1.8 mi SE 4.6 mph - 0.00 in Snow Light Snow
5:19 PM 33.8 °F 30.8 °F 32.0 °F 93% 30.09 in 2.0 mi SSE 3.5 mph - 0.00 in Snow Light Snow
5:27 PM 33.8 °F - 32.0 °F 93% 30.08 in 1.8 mi Calm Calm - 0.00 in Snow Light Snow
5:44 PM 33.8 °F 29.6 °F 32.0 °F 93% 30.07 in 3.0 mi SE 4.6 mph - 0.00 in Snow Light Snow
5:51 PM 33.1 °F 30.0 °F 32.0 °F 96% 30.08 in 2.5 mi SE 3.5 mph - 0.00 in Snow Light Snow
6:16 PM 33.8 °F 29.6 °F 32.0 °F 93% 30.07 in 1.8 mi SE 4.6 mph - 0.01 in Snow Light Snow
6:42 PM 33.8 °F 30.8 °F 30.2 °F 87% 30.07 in 2.0 mi ESE 3.5 mph - 0.01 in Snow Light Snow
6:51 PM 33.1 °F 30.0 °F 30.9 °F 92% 30.06 in 2.0 mi ESE 3.5 mph - 0.01 in Snow Light Snow
7:13 PM 33.8 °F - 32.0 °F 93% 30.06 in 1.5 mi Calm Calm - 0.01 in Snow Light Snow
7:51 PM 33.1 °F 30.0 °F 30.9 °F 92% 30.05 in 1.8 mi East 3.5 mph - 0.02 in Snow Light Snow
8:00 PM 33.8 °F - 32.0 °F 93% 30.04 in 2.0 mi Calm Calm - 0.00 in Snow Light Snow
8:35 PM 33.8 °F - 32.0 °F 93% 30.03 in 2.5 mi Calm Calm - 0.01 in Snow Light Snow
8:47 PM 33.8 °F 30.8 °F 30.2 °F 87% 30.03 in 4.0 mi NE 3.5 mph - 0.01 in Snow Light Snow
8:51 PM 33.1 °F 30.0 °F 30.9 °F 92% 30.02 in 4.0 mi NE 3.5 mph - 0.01 in Snow Light Snow
8:59 PM 33.8 °F - 30.2 °F 87% 30.02 in 4.0 mi Calm Calm - 0.00 in   Overcast
9:09 PM 33.8 °F - 30.2 °F 87% 30.02 in 6.0 mi Calm Calm - 0.00 in   Overcast
9:51 PM 33.1 °F 30.0 °F 30.9 °F 92% 30.00 in 5.0 mi North 3.5 mph - 0.00 in   Overcast
10:51 PM 33.1 °F - 32.0 °F 96% 29.99 in 2.0 mi Calm Calm - 0.01 in Snow Light Snow
11:16 PM 33.8 °F - 32.0 °F 93% 29.97 in 3.0 mi Calm Calm - 0.01 in Snow Light Snow
11:25 PM 33.8 °F - 32.0 °F 93% 29.96 in 3.0 mi Calm Calm - 0.01 in Snow Light Snow
11:51 PM 33.1 °F - 32.0 °F 96% 29.96 in 2.0 mi Calm Calm - 0.02 in Snow Light Snow
11:59 PM 33.8 °F - 32.0 °F 93% 29.96 in 1.8 mi Calm Calm - 0.01 in Snow Light Snow